Location: Saint-Palais-sur-Mer
(45.6429°N, 1.0859°W)
Time: 21:06:23
(UTC+02:00)

CUBEBUG 2 - Pass Details

Date: 27 April 2024
Orbit: 570 x 669 km, 97.8° (Epoch: 19 May)

Event Time Altitude Azimuth Distance (km) Brightness Sun altitude
Rises 03:21:22 0° 27° (NNE) 2,803 ? -27.8°
Reaches altitude 10° 03:23:56 10° 43° (NE) 1,910 ? -27.6°
Enters shadow 03:27:07 21° 94° (E) 1,329 ? -27.4°
